Tracking 26911 objects as of 8-Feb-2023
HD Live streaming from Space Station
objects crossing your sky now

SL-3 R/B

Track SL-3 R/B now!
10-day predictions


NORAD ID: 6257
Int'l Code: 1972-085B
Perigee: 836.3 km
Apogee: 920.4 km
Inclination: 81.3 °
Period: 102.4 minutes
Semi major axis: 7249 km
RCS: 6.5788 m2 (large)
Launch date: October 26, 1972
Source: Commonwealth of Independent States (former USSR) (CIS)
Launch site: PLESETSK MISSILE AND SPACE COMPLEX (PKMTR)

Note: This is a ROCKET BODY
Your satellite tracking list
Your tracking list is empty




NASA's NSSDC Master Catalog

Two Line Element Set (TLE):
1  6257U 72085B   23038.91793166  .00000178  00000-0  97891-4 0  9994
2  6257  81.2626 327.6341 0057995  87.6497 273.1310 14.06535846579290
Source of the keplerian elements: AFSPC